User: anonymous   Login
Location: Albany
(35.0000°S, 118.0000°E)
Time: 00:45:59
(UTC-05:00)
Language:

Cosmos 1758 Rocket - Orbit

View from above orbital plane
View from above orbital plane
View from above satellite
View from above satellite

Ground track
Ground track

The orbit data is extracted from the following two-line orbital elements,

1 16792U 86046B   16340.21985541  .00000092  00000-0  83525-5 0  9997
2 16792  82.4834  24.9190 0023540 208.5815 214.2395 14.83105912646134
Epoch (UTC): 05 December 2016 05:16:35
Eccentricity: 0.0023540
inclination: 82.4834°
perigee height: 603 km
apogee height: 636 km
right ascension of ascending node: 24.9190°
argument of perigee: 208.5815°
revolutions per day: 14.83105912
mean anomaly at epoch: 214.2395°
orbit number at epoch: 64613

The dashed part of the orbit path shows where the satellite is in the earth's shadow,  

DLR